• In Hungary
  • List of Countries
  • For 7 days
  • Water Temperature
  • Satellite Maps
  • Weather Map
  • News
  • Weather Widgets
  • user-avatar
    Login

    Hourly Weather Karatu

    Today, 20 June, Wednesday

    Time Temperature Precipitation Wind Pressure Humidity
    00:00 +16°C° 0 mm 3 mps 634 mmHg 79%
    01:00 +16°C° 0 mm 2 mps 634 mmHg 82%
    02:00 +15°C° 0 mm 2 mps 634 mmHg 85%
    03:00 +15°C° 0 mm 2 mps 634 mmHg 85%
    04:00 +15°C° 0 mm 2 mps 634 mmHg 86%
    05:00 +15°C° 0 mm 2 mps 634 mmHg 87%
    06:00 +16°C° 0 mm 3 mps 635 mmHg 82%
    07:00 +17°C° 0 mm 3 mps 635 mmHg 78%
    08:00 +18°C° 0 mm 3 mps 636 mmHg 72%
    09:00 +20°C° 0 mm 3 mps 636 mmHg 65%
    10:00 +21°C° 0 mm 3 mps 636 mmHg 57%
    11:00 +23°C° 0 mm 4 mps 636 mmHg 50%
    12:00 +25°C° 0 mm 4 mps 636 mmHg 48%
    13:00 +25°C° 0 mm 4 mps 636 mmHg 45%
    14:00 +26°C° 0 mm 4 mps 635 mmHg 43%
    15:00 +25°C° 0 mm 4 mps 635 mmHg 45%
    16:00 +23°C° 0 mm 4 mps 635 mmHg 48%
    17:00 +23°C° 0 mm 4 mps 634 mmHg 50%
    18:00 +21°C° 0 mm 4 mps 634 mmHg 56%
    19:00 +20°C° 0 mm 3 mps 634 mmHg 62%
    20:00 +18°C° 0 mm 3 mps 634 mmHg 68%
    21:00 +18°C° 0 mm 3 mps 634 mmHg 70%
    22:00 +17°C° 0 mm 3 mps 635 mmHg 72%
    23:00 +17°C° 0 mm 3 mps 635 mmHg 75%

    Tomorrow, 21 June, Thursday

    Time Temperature Precipitation Wind Pressure Humidity
    00:00 +16°C° 0 mm 3 mps 635 mmHg 77%
    01:00 +16°C° 0 mm 3 mps 635 mmHg 80%
    02:00 +16°C° 0 mm 3 mps 635 mmHg 82%
    03:00 +14°C° 0 mm 3 mps 635 mmHg 84%
    04:00 +14°C° 0 mm 3 mps 635 mmHg 85%
    05:00 +14°C° 0 mm 3 mps 635 mmHg 87%
    06:00 +16°C° 0 mm 3 mps 635 mmHg 81%
    07:00 +17°C° 0 mm 3 mps 636 mmHg 75%
    08:00 +18°C° 0 mm 3 mps 637 mmHg 70%
    09:00 +20°C° 0 mm 4 mps 637 mmHg 63%
    10:00 +21°C° 0 mm 4 mps 637 mmHg 56%
    11:00 +23°C° 0 mm 4 mps 637 mmHg 49%
    12:00 +25°C° 0 mm 4 mps 637 mmHg 46%
    13:00 +25°C° 0 mm 4 mps 636 mmHg 44%
    14:00 +26°C° 0 mm 4 mps 636 mmHg 41%
    15:00 +25°C° 0 mm 4 mps 635 mmHg 43%
    16:00 +25°C° 0 mm 4 mps 635 mmHg 46%
    17:00 +23°C° 0 mm 4 mps 635 mmHg 48%
    18:00 +21°C° 0 mm 3 mps 635 mmHg 53%
    19:00 +20°C° 0 mm 3 mps 635 mmHg 59%
    20:00 +18°C° 0 mm 3 mps 635 mmHg 64%
    21:00 +18°C° 0 mm 3 mps 635 mmHg 69%
    22:00 +17°C° 0 mm 3 mps 635 mmHg 73%
    23:00 +16°C° 0 mm 3 mps 635 mmHg 78%

    Day after tomorrow, 22 June, Friday

    Time Temperature Precipitation Wind Pressure Humidity
    00:00 +16°C° 0 mm 3 mps 635 mmHg 81%
    01:00 +14°C° 0 mm 3 mps 635 mmHg 84%
    02:00 +14°C° 0 mm 3 mps 634 mmHg 88%
    03:00 +14°C° 0 mm 3 mps 635 mmHg 88%
    04:00 +14°C° 0 mm 3 mps 635 mmHg 88%
    05:00 +14°C° 0 mm 3 mps 635 mmHg 88%
    06:00 +16°C° 0 mm 3 mps 635 mmHg 82%
    07:00 +17°C° 0 mm 3 mps 636 mmHg 76%
    08:00 +18°C° 0 mm 4 mps 637 mmHg 70%
    09:00 +20°C° 0 mm 4 mps 637 mmHg 63%
    10:00 +21°C° 0 mm 4 mps 637 mmHg 57%
    11:00 +23°C° 0 mm 4 mps 637 mmHg 50%
    12:00 +23°C° 0 mm 4 mps 637 mmHg 48%
    13:00 +25°C° 0 mm 4 mps 636 mmHg 45%
    14:00 +26°C° 0 mm 4 mps 635 mmHg 43%
    15:00 +25°C° 0 mm 4 mps 635 mmHg 46%
    16:00 +23°C° 0 mm 4 mps 635 mmHg 50%
    17:00 +22°C° 0 mm 4 mps 634 mmHg 54%
    18:00 +20°C° 0 mm 3 mps 634 mmHg 60%
    19:00 +19°C° 0 mm 3 mps 634 mmHg 67%
    20:00 +17°C° 0 mm 3 mps 635 mmHg 74%
    21:00 +17°C° 0 mm 3 mps 635 mmHg 75%
    22:00 +17°C° 0 mm 3 mps 635 mmHg 77%
    23:00 +17°C° 0 mm 3 mps 635 mmHg 78%

    23 June, Saturday

    Time Temperature Precipitation Wind Pressure Humidity
    00:00 +16°C° 0 mm 3 mps 635 mmHg 80%
    01:00 +16°C° 0 mm 2 mps 634 mmHg 82%
    02:00 +15°C° 0 mm 2 mps 634 mmHg 84%
    03:00 +15°C° 0 mm 2 mps 634 mmHg 85%
    04:00 +14°C° 0 mm 2 mps 634 mmHg 87%
    05:00 +14°C° 0 mm 2 mps 634 mmHg 88%
    06:00 +14°C° 0 mm 3 mps 634 mmHg 82%
    07:00 +17°C° 0 mm 3 mps 635 mmHg 75%
    08:00 +18°C° 0 mm 3 mps 636 mmHg 69%
    09:00 +20°C° 0 mm 3 mps 636 mmHg 61%
    10:00 +22°C° 0 mm 4 mps 636 mmHg 53%
    11:00 +25°C° 0 mm 4 mps 637 mmHg 45%
    12:00 +26°C° 0 mm 4 mps 636 mmHg 42%
    13:00 +26°C° 0 mm 4 mps 635 mmHg 39%
    14:00 +27°C° 0 mm 4 mps 634 mmHg 36%
    15:00 +26°C° 0 mm 3 mps 634 mmHg 38%
    16:00 +25°C° 0 mm 3 mps 634 mmHg 40%
    17:00 +24°C° 0 mm 3 mps 633 mmHg 42%
    18:00 +22°C° 0 mm 3 mps 633 mmHg 47%
    19:00 +20°C° 0 mm 3 mps 633 mmHg 52%
    20:00 +18°C° 0 mm 3 mps 633 mmHg 57%
    21:00 +17°C° 0 mm 3 mps 633 mmHg 61%
    22:00 +16°C° 0 mm 3 mps 633 mmHg 65%
    23:00 +16°C° 0 mm 3 mps 633 mmHg 70%

    24 June, Sunday

    Time Temperature Precipitation Wind Pressure Humidity
    00:00 +14°C° 0 mm 3 mps 633 mmHg 74%
    01:00 +14°C° 0 mm 3 mps 632 mmHg 79%
    02:00 +13°C° 0 mm 3 mps 632 mmHg 84%
    03:00 +14°C° 0 mm 2 mps 632 mmHg 85%
    04:00 +14°C° 0 mm 2 mps 633 mmHg 86%
    05:00 +14°C° 0 mm 2 mps 633 mmHg 87%
    06:00 +14°C° 0 mm 3 mps 634 mmHg 80%
    07:00 +17°C° 0 mm 3 mps 635 mmHg 72%
    08:00 +18°C° 0 mm 3 mps 636 mmHg 65%
    09:00 +20°C° 0 mm 3 mps 636 mmHg 57%
    10:00 +22°C° 0 mm 3 mps 636 mmHg 50%
    11:00 +25°C° 0 mm 4 mps 636 mmHg 42%
    12:00 +26°C° 0 mm 3 mps 635 mmHg 39%
    13:00 +26°C° 0 mm 3 mps 635 mmHg 36%
    14:00 +27°C° 0 mm 3 mps 634 mmHg 33%
    15:00 +26°C° 0 mm 3 mps 634 mmHg 35%
    16:00 +25°C° 0 mm 3 mps 634 mmHg 37%
    17:00 +25°C° 0 mm 3 mps 633 mmHg 38%
    18:00 +22°C° 0 mm 3 mps 634 mmHg 42%
    19:00 +20°C° 0 mm 3 mps 634 mmHg 46%
    20:00 +18°C° 0 mm 3 mps 634 mmHg 50%
    21:00 +17°C° 0 mm 3 mps 634 mmHg 54%
    22:00 +17°C° 0 mm 3 mps 634 mmHg 59%
    23:00 +16°C° 0 mm 3 mps 633 mmHg 63%

    25 June, Monday

    Time Temperature Precipitation Wind Pressure Humidity
    00:00 +14°C° 0 mm 3 mps 633 mmHg 69%
    01:00 +14°C° 0 mm 3 mps 633 mmHg 74%
    02:00 +13°C° 0 mm 3 mps 632 mmHg 79%
    03:00 +13°C° 0 mm 3 mps 633 mmHg 81%
    04:00 +13°C° 0 mm 3 mps 633 mmHg 83%
    05:00 +12°C° 0 mm 3 mps 633 mmHg 85%
    06:00 +14°C° 0 mm 3 mps 634 mmHg 79%
    07:00 +16°C° 0 mm 3 mps 635 mmHg 73%
    08:00 +17°C° 0 mm 4 mps 636 mmHg 68%
    09:00 +19°C° 0 mm 4 mps 636 mmHg 61%
    10:00 +21°C° 0 mm 4 mps 636 mmHg 54%
    11:00 +23°C° 0 mm 4 mps 636 mmHg 47%
    12:00 +23°C° 0 mm 4 mps 635 mmHg 45%
    13:00 +25°C° 0 mm 4 mps 634 mmHg 42%
    14:00 +26°C° 0 mm 4 mps 634 mmHg 40%
    15:00 +25°C° 0 mm 4 mps 634 mmHg 42%
    16:00 +23°C° 0 mm 4 mps 633 mmHg 44%
    17:00 +22°C° 0 mm 3 mps 633 mmHg 47%
    18:00 +21°C° 0 mm 3 mps 633 mmHg 52%
    19:00 +20°C° 0 mm 3 mps 634 mmHg 56%
    20:00 +18°C° 0 mm 4 mps 634 mmHg 61%
    21:00 +18°C° 0 mm 4 mps 634 mmHg 65%
    22:00 +17°C° 0 mm 4 mps 634 mmHg 69%
    23:00 +17°C° 0 mm 4 mps 634 mmHg 74%
    Show more